GFSGL_con_lsi_000.txt.gz
Lid_Strength_Index
9 9 9 8 8 9 9 9 8 7 7 7 6 7 6 5 5 5 5 5 6 6 6 7 8 8 8 8 8 8 8 8 10 9 8 7 6 6 6 5 4 4 4
8 9 9 10 11 10 10 9 8 7 7 7 6 6 5 5 6 6 6 6 7 8 8 8 8 8 8 8 8 9 9 9 9 10 9 9 8 6 6 6 5 5 5
8 9 10 11 11 11 9 8 7 7 6 6 5 5 5 5 6 7 7 8 8 8 9 9 9 9 10 10 10 10 10 9 9 10 10 9 9 8 7 7 6 6 6
8 9 10 10 10 10 8 7 6 5 5 4 4 4 5 7 7 7 8 9 10 10 10 10 11 11 11 11 10 10 10 10 10 10 10 10 9 8 8 9 9 7 8
8 7 8 7 7 7 6 5 4 4 3 3 4 6 7 7 7 8 9 9 10 10 10 10 10 9 8 8 9 10 10 10 10 10 10 10 10 10 10 9 10 9 8
8 8 6 5 5 5 4 4 3 3 4 4 7 8 9 8 6 7 7 9 10 10 11 10 10 8 9 8 8 8 8 9 9 9 9 10 10 10 10 11 11 11 12
7 7 7 7 5 5 4 4 5 7 8 9 9 9 9 9 7 7 8 9 10 10 10 10 10 9 9 9 8 8 8 7 8 8 9 9 10 9 9 10 9 10 11
9 8 7 7 7 7 8 8 9 9 10 10 10 9 10 10 8 8 8 10 11 10 10 10 10 10 9 9 9 9 9 9 9 9 9 9 9 8 9 8 8 8 8
8 8 7 8 8 8 9 10 10 10 10 10 9 10 10 10 8 8 9 12 12 12 10 10 10 10 9 8 9 10 10 10 8 8 7 8 8 8 8 9 10 10 10
8 8 8 8 9 10 10 10 10 11 10 9 10 10 10 12 9 9 9 11 12 11 11 10 9 9 9 9 10 10 11 10 9 9 9 8 7 7 7 8 9 10 10
8 8 8 9 10 10 11 11 11 11 11 14 14 13 11 10 11 9 8 10 10 10 10 10 10 9 9 9 9 10 10 9 9 8 9 9 9 8 8 7 8 8 10
8 9 9 9 9 10 10 11 11 11 12 13 15 13 11 12 8 8 8 8 8 9 10 9 10 10 10 10 10 10 9 10 10 10 10 10 9 9 8 8 8 8 8
9 9 9 9 9 10 10 11 10 11 12 12 10 11 10 9 10 8 8 8 7 9 9 9 10 11 12 12 11 11 11 12 12 11 10 10 9 8 7 8 7 7 7
9 9 9 10 10 10 10 9 9 11 12 10 11 11 10 10 10 10 8 8 8 8 9 11 12 12 13 13 13 13 13 12 12 12 11 9 8 9 9 8 8 8 9
9 9 9 10 10 9 9 9 8 9 11 11 12 12 11 11 10 7 8 9 9 9 10 11 13 14 15 14 14 14 14 13 13 13 12 11 10 9 9 8 8 8 9
9 9 11 12 11 9 9 9 7 7 7 7 8 9 9 8 7 8 8 8 9 10 11 13 15 16 17 15 16 16 15 15 15 14 13 11 10 10 10 9 8 8 9
12 11 13 11 12 12 12 12 15 12 9 9 8 9 8 8 8 9 9 10 10 12 14 14 16 16 16 16 16 16 17 16 15 15 14 13 12 10 9 9 8 7 7
14 14 13 14 14 14 17 16 18 19 18 16 12 10 10 9 10 10 11 12 14 14 15 15 16 16 16 17 17 17 17 17 17 17 16 15 15 13 13 11 10 9 9
10 12 16 17 17 17 18 18 19 19 19 17 15 14 14 11 11 12 12 15 16 16 16 16 17 17 17 17 18 18 18 17 17 18 17 17 16 14 12 14 13 13 12
10 12 15 14 15 15 16 18 17 18 17 15 17 17 14 14 16 16 16 16 17 17 17 17 17 17 18 18 18 18 18 17 17 18 19 19 18 17 17 16 17 15 13
13 13 13 14 15 15 17 18 19 18 17 16 19 19 15 16 17 16 17 17 17 17 18 18 18 18 18 18 18 19 19 18 17 18 19 19 21 19 18 17 17 16 15
12 15 14 16 16 18 18 18 20 19 18 18 18 17 15 17 17 17 17 17 17 17 17 18 19 19 18 19 19 19 19 19 18 18 19 20 19 19 19 18 18 18 17
10 15 16 15 17 19 20 20 22 23 20 20 20 18 17 18 18 17 17 18 17 18 18 18 19 20 19 19 19 19 19 19 20 21 20 21 20 20 19 18 18 17 17
14 15 13 17 21 18 22 22 24 21 19 21 22 21 19 18 18 18 18 18 18 18 18 19 19 20 19 20 20 19 19 19 20 20 23 22 20 21 20 19 18 18 18
10 9 14 19 20 20 21 23 24 25 24 23 22 21 19 19 17 17 17 18 18 18 18 19 19 19 20 20 20 20 21 21 21 22 20 22 22 22 23 21 22 20 20
8 9 12 17 20 19 19 21 22 24 23 22 23 21 20 20 18 18 17 17 18 18 18 18 19 19 19 19 19 19 22 22 21 22 22 20 22 23 23 22 22 21 21

GFSGL_con_lsi_003.txt.gz
Lid_Strength_Index
5 5 5 5 6 7 6 5 5 4 4 4 4 4 4 4 4 3 3 3 3 3 3 3 4 4 5 5 4 5 6 6 8 7 5 4 4 4 4 3 3 3 3
5 5 5 6 7 7 6 5 4 5 4 4 4 3 3 3 2 3 4 4 4 5 5 5 5 5 5 5 5 6 6 5 7 8 6 6 5 5 4 4 4 4 3
5 5 6 6 7 7 5 4 4 4 3 3 2 2 2 3 3 4 4 5 5 5 5 6 6 6 7 7 7 7 7 7 7 8 8 7 6 6 6 6 5 5 5
5 5 5 5 5 5 4 4 3 3 3 2 2 1 2 4 5 5 5 5 6 6 6 7 7 7 8 8 8 8 8 8 8 8 9 8 7 6 6 7 7 6 6
5 5 5 5 4 5 5 5 3 2 2 2 2 3 5 5 6 5 6 6 7 7 7 7 7 8 8 8 8 8 7 8 8 8 9 8 8 8 8 7 7 7 6
6 7 7 6 5 5 5 4 3 4 5 5 6 6 6 6 6 6 6 6 7 7 8 8 8 8 8 8 8 8 7 8 9 9 9 9 8 8 7 8 8 8 9
7 7 6 5 5 6 5 5 6 6 6 6 6 6 6 6 7 7 7 7 8 8 9 9 9 8 8 7 8 8 8 8 9 8 8 8 8 7 7 7 7 7 8
7 6 5 5 6 6 6 6 6 6 7 7 6 6 7 7 8 8 8 7 8 8 8 8 8 8 8 8 9 9 8 7 7 8 8 7 7 7 7 7 7 7 6
6 5 5 6 6 6 7 7 7 7 7 7 7 7 7 7 8 8 8 8 8 8 8 8 8 8 8 8 9 9 8 8 7 7 7 7 7 7 7 7 8 9 9
6 6 5 6 6 7 7 7 7 7 7 7 7 7 7 7 7 7 7 7 8 8 8 8 8 8 8 8 8 9 10 9 8 7 7 7 7 6 7 7 7 9 10
5 5 6 6 7 7 7 7 7 7 7 7 7 6 6 6 6 7 7 7 8 8 8 8 7 8 9 9 9 10 10 9 9 8 8 7 7 7 7 6 6 7 8
4 5 6 6 7 7 7 6 6 6 6 6 7 6 6 6 7 7 7 6 6 7 7 7 7 9 10 11 11 10 10 10 9 10 9 9 8 7 6 6 6 6 5
5 6 6 6 6 6 7 6 6 6 6 7 7 8 8 7 7 7 7 6 6 6 6 8 9 10 11 12 12 11 11 11 10 11 10 9 8 7 6 6 6 6 6
6 6 6 6 6 5 6 6 6 6 7 7 8 9 8 8 7 7 6 6 7 7 7 8 10 11 12 12 11 11 11 11 12 11 10 9 8 7 7 7 7 7 7
6 6 6 6 6 7 6 6 6 6 7 8 8 9 9 9 8 7 7 8 8 8 9 10 11 13 13 12 12 12 12 12 12 12 11 10 8 7 7 7 7 7 8
7 7 6 6 7 7 6 6 6 7 8 8 8 9 8 8 8 8 9 9 9 10 11 12 13 13 13 14 14 13 13 13 13 12 11 11 10 8 7 7 7 7 7
7 7 7 8 7 7 7 7 8 7 9 9 9 9 9 9 9 9 10 10 11 11 13 13 14 14 14 14 14 14 14 13 13 12 12 12 11 9 8 8 7 7 6
8 10 7 7 7 7 7 8 8 9 10 10 10 10 10 10 10 11 11 12 14 14 14 14 15 15 14 14 14 14 14 13 13 13 13 12 12 10 9 9 8 7 6
6 6 7 8 8 9 8 8 8 9 10 10 11 11 11 11 12 12 13 14 15 15 15 15 15 15 15 15 15 15 14 14 14 13 13 13 13 12 11 10 9 10 8
6 8 10 7 8 8 8 8 8 9 10 11 12 12 12 12 13 14 14 14 15 16 16 16 15 15 15 15 15 15 14 13 13 13 13 13 12 12 11 11 10 10 9
6 7 10 7 8 8 8 8 9 9 10 11 12 13 14 14 14 14 14 15 15 16 16 16 16 15 15 15 15 15 14 14 14 14 13 12 12 12 12 11 10 10 10
7 8 7 8 8 8 8 8 9 9 10 11 12 12 14 13 14 14 15 15 15 15 15 16 16 16 16 16 16 15 15 15 14 14 13 13 12 12 11 11 11 11 10
7 7 7 8 9 10 8 9 9 9 9 10 11 12 13 13 14 14 14 15 15 15 15 15 16 16 16 15 15 15 15 15 15 15 14 13 12 12 12 12 12 12 12
7 7 8 8 9 9 9 9 9 11 10 10 11 12 12 13 14 14 14 14 15 15 15 16 16 16 16 16 16 16 16 16 15 15 15 14 13 13 12 12 12 13 12
7 7 7 8 8 9 9 8 9 9 9 9 10 11 12 12 13 13 13 14 14 15 15 16 16 16 16 17 17 17 18 19 17 17 14 14 14 14 15 14 14 13 14
7 7 7 7 8 9 9 9 9 9 10 9 9 10 10 12 12 13 13 13 14 14 15 15 16 16 16 16 16 17 18 19 18 19 15 14 15 15 14 15 15 13 14

GFSGL_con_lsi_006.txt.gz
Lid_Strength_Index
2 2 2 3 3 3 3 3 3 2 2 3 3 2 2 2 2 2 2 2 2 2 2 3 3 3 3 3 3 3 4 5 6 5 4 4 3 3 3 3 3 3 3
3 3 3 3 3 3 3 3 3 3 2 2 2 2 1 1 1 2 2 2 2 3 3 3 3 4 4 3 4 4 4 4 5 6 4 4 4 3 3 3 3 3 3
3 3 3 3 3 3 3 3 3 3 2 2 2 1 1 2 2 2 2 3 3 3 3 4 4 4 4 4 4 5 5 5 5 6 6 5 4 4 4 4 3 3 3
3 4 3 2 3 3 3 3 3 3 2 2 2 2 2 3 3 3 3 3 4 4 4 4 5 5 5 5 6 6 6 6 6 7 7 6 6 5 5 6 6 5 5
4 4 4 3 3 3 3 3 3 3 3 3 3 3 3 4 4 4 4 4 4 4 4 5 5 5 6 7 7 7 7 7 7 7 7 7 7 6 7 6 6 6 5
5 4 4 3 3 3 3 3 3 3 3 4 4 4 4 4 6 6 5 5 5 5 5 5 5 6 6 7 7 8 8 8 7 7 8 8 7 6 6 6 6 7 9
3 4 3 3 4 4 3 4 4 4 4 4 4 4 4 4 7 7 7 6 6 5 5 6 6 6 6 6 7 7 8 8 8 8 9 8 8 7 6 7 7 7 8
3 3 2 3 4 4 4 4 4 4 4 4 4 4 4 4 6 6 7 5 5 5 5 5 6 6 6 7 8 8 8 7 7 7 7 7 6 6 5 5 6 6 5
3 3 3 3 4 4 4 4 4 4 4 4 4 4 4 4 5 6 6 5 5 5 5 5 6 7 7 7 8 8 8 7 6 6 6 7 7 7 6 7 7 8 8
3 2 2 3 4 4 4 4 4 4 4 4 4 3 4 4 5 6 6 5 6 6 5 5 6 6 7 8 8 8 9 8 8 7 6 6 6 6 7 6 6 9 8
2 2 2 3 4 4 4 3 3 4 4 4 4 4 4 5 5 6 6 7 6 6 6 5 5 6 8 9 9 9 10 9 9 9 8 8 7 6 6 5 5 6 7
1 2 2 3 4 4 4 3 4 4 4 5 5 5 5 4 6 6 6 6 6 6 6 5 5 8 8 9 10 10 11 10 9 9 8 9 8 7 6 5 5 5 5
2 2 2 3 4 3 4 4 4 4 5 6 6 6 6 6 6 6 6 6 6 5 5 6 8 8 9 10 11 11 11 9 9 10 9 9 7 6 5 5 5 5 5
2 2 3 4 4 3 3 4 5 5 6 6 7 7 7 7 7 6 6 6 6 6 7 6 8 9 9 10 10 10 10 10 10 10 10 9 7 7 6 6 6 6 6
3 3 4 4 4 4 4 5 5 5 6 7 7 8 8 9 8 7 7 8 8 8 8 8 9 10 11 11 11 11 10 10 10 10 10 9 9 7 6 5 6 6 7
5 4 4 4 4 4 5 5 7 7 7 8 9 8 8 8 8 8 9 9 10 10 9 11 11 12 12 12 12 11 11 11 11 10 10 9 9 8 8 7 7 6 6
5 4 4 5 4 5 5 6 6 5 7 9 9 9 9 9 9 10 10 10 11 11 11 12 12 12 12 12 12 12 12 11 10 11 10 10 10 9 8 7 7 8 7
5 6 4 4 4 5 6 6 6 6 7 7 8 10 10 10 10 11 11 11 12 12 12 13 13 13 12 12 12 13 12 12 11 11 11 10 10 9 9 9 8 8 7
5 4 4 4 5 6 6 6 6 6 7 8 8 9 9 10 11 11 11 12 13 13 14 13 13 13 13 12 12 13 12 12 12 11 11 11 10 10 10 9 9 9 8
5 6 6 5 6 6 6 7 7 7 7 8 9 10 10 10 11 11 12 12 13 13 13 13 13 13 13 13 12 12 12 12 12 12 11 11 10 10 10 10 9 9 9
5 5 7 5 6 6 7 7 7 7 7 7 8 10 12 11 12 12 12 13 13 13 13 13 13 13 13 13 13 12 12 12 12 12 11 11 10 10 10 9 9 9 9
5 5 5 6 6 6 7 7 7 7 7 8 8 9 12 11 12 12 12 12 13 13 13 13 13 13 13 13 13 13 13 13 12 12 12 11 10 10 10 10 10 9 10
5 5 6 6 6 7 7 7 7 7 7 7 7 8 9 10 11 11 12 12 12 13 13 13 13 14 13 13 13 13 13 13 13 12 12 11 11 11 10 10 10 10 10
6 6 6 6 6 7 7 7 6 7 7 7 7 7 8 9 10 11 11 11 12 12 13 13 14 14 14 14 13 13 14 14 13 13 12 12 11 11 10 11 11 11 11
5 6 6 6 6 7 7 6 7 7 7 7 7 7 8 8 9 10 10 10 11 12 13 13 13 14 14 15 15 15 16 16 15 15 11 11 12 12 12 11 11 11 11
6 5 5 5 6 6 6 7 7 7 7 7 7 7 7 8 8 9 10 10 11 12 13 13 13 14 14 14 15 16 16 16 16 15 12 12 12 12 12 12 13 11 12

GFSGL_con_lsi_009.txt.gz
Lid_Strength_Index
2 2 3 3 3 3 3 3 3 4 2 2 1 1 1 2 1 1 1 1 1 1 1 1 2 1 2 3 2 2 3 3 5 4 3 2 2 2 2 2 2 2 3
3 3 3 3 3 3 3 4 3 2 1 1 1 1 1 1 1 1 2 2 2 2 2 2 2 2 2 2 3 3 3 3 4 5 4 3 3 2 2 2 3 3 3
3 3 3 3 4 3 3 2 2 2 2 1 1 1 2 2 2 3 3 3 3 3 3 3 4 4 4 4 4 4 4 4 4 5 5 4 3 3 3 3 3 2 3
3 3 3 3 3 3 3 3 2 2 3 2 2 2 3 3 3 3 3 3 3 3 3 3 4 4 4 5 5 5 5 6 6 6 6 5 5 4 4 4 4 3 3
3 3 3 3 2 2 2 2 2 2 2 2 3 3 3 3 4 4 4 4 4 4 3 3 3 3 4 5 6 6 7 7 7 7 7 6 6 5 6 4 5 4 4
3 3 3 2 2 2 2 2 3 3 3 3 3 3 3 3 5 6 5 5 5 5 5 4 4 4 4 4 5 6 6 8 8 8 8 7 7 6 5 6 6 7 8
3 2 2 2 2 2 2 3 3 3 3 4 3 3 3 3 6 5 5 4 4 4 4 4 4 4 4 5 5 5 6 6 8 8 9 9 8 6 6 6 6 6 7
2 2 2 2 2 2 2 3 3 3 4 4 3 3 3 3 4 5 5 4 4 4 4 4 3 4 4 5 6 7 7 7 6 6 7 7 6 6 6 6 6 6 5
1 2 2 1 2 2 3 3 3 4 4 3 3 4 4 4 4 5 6 6 6 6 5 4 4 4 4 5 6 8 8 7 6 6 6 6 6 6 6 6 7 7 7
1 2 1 2 2 2 2 3 3 3 3 3 4 4 4 4 4 5 6 6 7 6 5 5 4 4 4 5 6 7 8 8 8 7 7 6 6 5 6 6 7 9 8
1 1 1 1 1 1 2 3 3 3 3 4 4 3 4 4 5 5 6 6 6 6 5 5 4 5 6 6 7 8 9 8 9 9 9 8 7 7 6 5 5 6 8
0 1 1 0 1 2 3 3 3 3 4 4 4 4 4 4 5 6 6 6 5 6 6 4 4 6 6 7 8 9 9 10 10 10 9 8 8 7 7 6 5 4 4
1 1 1 1 2 2 3 3 4 4 5 5 6 5 6 5 5 6 6 6 6 6 5 6 6 7 7 8 8 9 10 10 9 9 9 9 7 6 6 6 5 5 5
2 2 2 3 3 3 3 3 4 5 6 6 6 7 7 7 6 6 7 7 7 7 7 7 7 8 8 8 9 9 9 9 9 10 9 8 7 7 7 6 6 6 6
3 3 3 3 3 3 3 4 4 4 6 7 7 8 9 9 8 8 8 9 9 9 9 8 9 10 10 10 10 10 9 9 10 9 9 9 8 8 7 6 6 6 7
4 4 4 3 3 4 4 4 7 7 7 8 8 8 8 9 9 9 9 9 9 10 9 10 11 11 11 11 11 11 10 10 10 10 9 9 9 9 8 7 6 7 7
5 5 4 4 4 4 5 6 6 5 7 7 8 9 9 10 9 9 10 10 10 10 11 11 12 12 12 12 12 12 12 10 10 10 10 10 9 9 8 8 7 7 7
5 6 4 4 4 5 5 6 6 6 7 6 7 8 9 9 10 10 10 10 11 11 12 12 12 12 12 12 12 12 11 11 10 10 10 10 9 9 9 9 9 8 8
5 6 5 5 5 6 5 5 6 6 6 6 6 6 8 9 9 10 10 11 12 12 13 13 12 12 12 12 12 11 11 11 11 11 10 10 10 9 9 9 9 9 8
4 6 6 5 5 5 6 6 6 6 6 6 7 7 8 9 10 10 10 11 12 12 12 13 12 12 12 12 12 12 11 11 11 11 11 10 9 9 10 9 9 9 9
5 6 6 6 5 6 6 6 6 6 7 7 6 7 10 10 10 10 11 11 12 13 13 12 12 12 12 12 13 12 12 12 12 12 12 10 9 10 9 9 9 9 9
6 6 6 6 6 6 6 6 6 7 6 7 7 7 9 8 9 10 10 11 11 12 12 12 12 13 13 13 13 13 13 13 13 12 12 11 10 10 9 10 10 9 9
5 6 6 5 5 6 6 6 6 6 6 6 6 7 7 8 8 9 10 10 11 11 11 12 13 13 13 13 12 13 14 15 14 13 13 11 11 11 10 10 10 10 10
5 6 6 5 5 6 6 6 6 6 6 6 6 6 7 7 8 8 8 9 10 10 11 12 13 13 14 14 13 13 14 15 14 14 13 11 12 11 11 11 11 11 11
4 5 5 5 5 5 6 6 6 5 5 6 6 6 6 7 7 7 7 8 9 10 11 12 12 13 13 14 14 15 16 16 15 15 13 11 12 12 12 11 12 11 11
5 5 5 5 5 5 5 6 6 5 5 5 6 6 6 7 7 7 7 8 9 9 10 11 12 13 13 12 14 15 16 16 16 16 13 12 13 13 13 12 13 12 12

GFSGL_con_lsi_012.txt.gz
Lid_Strength_Index
3 3 3 4 4 3 4 4 4 3 3 2 2 2 2 2 2 2 2 1 2 2 2 2 3 2 3 3 3 3 4 4 6 5 4 4 4 4 4 3 3 4 3
3 4 4 4 4 4 3 3 3 3 2 2 2 2 2 2 2 2 2 3 3 3 3 3 3 3 4 4 4 5 5 5 6 7 6 5 6 5 5 4 3 3 4
4 4 4 4 4 4 3 3 2 2 2 3 3 3 3 3 4 4 4 4 4 5 5 5 4 4 5 5 5 6 5 5 6 7 8 6 6 6 6 5 5 4 3
4 4 4 4 4 4 3 3 2 2 3 3 3 3 3 4 4 4 4 5 5 5 5 5 5 5 5 5 5 6 6 7 8 8 8 8 7 6 6 7 7 6 6
4 4 4 3 4 4 2 2 2 2 3 3 3 3 4 4 5 5 5 6 6 6 5 5 4 3 2 3 5 6 7 8 9 9 9 9 8 8 8 6 7 7 6
3 3 2 1 2 2 2 2 2 3 3 3 3 4 4 4 5 5 6 7 5 6 6 6 5 3 3 2 3 3 5 8 9 10 10 10 10 9 8 8 9 10 11
2 2 2 2 2 1 2 2 3 3 3 3 4 4 4 4 5 5 5 6 7 7 7 6 6 4 4 4 4 4 4 5 7 8 10 10 10 9 9 10 10 10 10
3 3 1 1 1 2 2 3 2 3 4 4 4 4 5 5 4 4 5 7 7 7 7 7 7 6 5 5 5 6 6 6 7 7 8 8 8 7 8 8 8 8 8
4 2 1 1 2 2 3 3 3 4 4 4 4 5 6 5 3 3 5 7 7 8 7 6 6 6 5 4 6 6 7 7 6 5 6 6 6 6 6 7 9 9 10
3 2 2 1 1 2 2 3 4 4 4 4 5 5 4 5 3 4 5 8 8 7 6 6 5 4 4 5 6 6 7 7 8 9 9 8 8 7 6 7 7 10 11
2 2 2 2 2 2 2 3 4 4 5 6 6 6 5 4 5 5 6 7 7 7 7 7 6 4 4 5 5 7 8 8 9 10 10 10 9 9 8 7 7 8 10
2 2 2 1 1 2 3 3 4 5 6 7 8 7 6 6 5 6 6 6 7 8 8 7 7 6 6 6 6 6 7 9 10 11 11 10 10 9 8 7 7 6 6
3 3 2 2 3 3 4 5 5 6 7 8 7 8 8 7 8 7 7 7 8 9 8 8 7 6 7 7 7 7 8 10 10 10 11 10 9 8 7 8 7 7 6
3 3 3 4 4 4 4 4 6 7 8 7 8 9 9 9 10 9 9 9 9 9 9 9 8 8 9 9 8 9 9 9 10 10 10 10 8 9 8 8 7 8 9
4 4 5 5 5 5 4 6 6 7 8 9 9 9 11 12 11 9 9 10 10 10 10 9 10 11 11 10 11 11 11 11 11 11 11 10 9 9 9 9 8 10 10
5 5 5 6 5 5 5 6 6 7 7 7 8 10 10 9 8 9 9 9 9 9 10 12 12 12 12 12 12 12 11 11 11 11 11 10 10 10 10 9 8 10 12
6 6 6 6 6 6 6 6 8 6 6 7 7 8 7 8 8 9 9 9 9 10 12 12 13 13 13 12 12 12 12 11 11 11 11 11 11 10 10 10 10 10 10
5 7 6 5 6 7 6 7 6 7 8 7 7 7 8 7 8 9 9 10 12 12 13 13 13 13 13 13 13 13 13 12 12 12 11 11 11 11 10 11 10 10 10
5 6 7 6 6 6 6 6 6 7 7 8 8 8 10 8 8 8 9 12 14 13 13 13 13 13 13 13 14 13 13 13 13 13 12 11 10 10 11 10 10 11 11
5 6 8 6 6 6 6 7 7 7 7 7 9 10 11 12 12 12 12 13 16 14 14 13 13 13 13 13 14 14 14 14 14 14 14 13 11 10 10 11 10 11 10
5 6 6 6 6 6 7 7 7 7 7 7 8 10 14 13 12 12 12 12 15 15 16 14 14 14 14 14 14 14 14 15 15 15 15 14 12 12 11 11 10 10 11
7 7 6 6 6 6 6 7 7 7 7 7 8 9 12 12 12 12 11 12 13 15 15 15 14 15 14 15 15 15 16 17 17 16 16 15 13 13 12 11 13 14 11
6 6 6 6 6 6 6 6 6 6 6 7 7 8 8 9 12 12 13 11 11 12 15 16 16 16 15 16 15 15 16 17 17 16 17 17 14 14 13 14 13 15 15
6 6 6 6 6 6 6 6 6 6 6 6 6 7 7 8 11 12 13 11 13 12 12 16 16 15 15 16 16 16 16 17 17 16 17 16 14 14 14 14 16 14 18
6 5 6 6 6 6 6 6 6 6 6 5 6 6 7 7 10 10 12 12 13 14 14 15 15 15 15 15 16 16 17 17 17 17 17 15 16 16 17 15 17 15 18
6 6 6 5 5 5 5 5 6 6 6 5 5 6 6 8 10 9 12 13 13 14 14 14 15 16 16 15 15 15 16 17 17 17 17 15 16 17 19 18 18 17 17

GFSGL_con_lsi_015.txt.gz
Lid_Strength_Index
6 6 6 6 6 6 6 6 6 5 5 4 4 3 3 3 3 3 3 3 3 3 4 4 4 3 3 3 3 3 4 5 7 7 6 5 5 5 4 2 1 2 3
6 6 6 6 7 7 6 6 5 5 4 4 4 4 4 4 4 5 5 5 6 6 6 6 6 4 5 5 5 5 5 6 6 9 8 7 6 5 5 6 4 2 3
6 6 6 6 6 7 6 6 5 5 5 5 5 5 4 4 4 4 5 6 6 6 6 6 6 6 7 6 5 6 6 5 8 9 9 8 8 7 6 6 6 5 4
6 6 6 5 5 5 5 5 4 4 5 5 5 4 3 3 4 5 6 6 7 6 6 6 6 6 6 6 5 6 5 7 7 9 9 9 9 7 7 8 8 7 7
5 6 6 4 5 5 3 3 2 4 5 4 5 5 4 5 5 7 7 7 8 7 7 6 6 5 4 4 5 5 6 7 8 9 10 10 10 10 9 9 9 9 8
6 5 4 5 4 3 3 1 3 5 5 5 5 5 5 5 5 5 6 8 7 7 8 8 7 6 5 5 4 4 4 6 8 9 10 11 10 10 9 10 11 11 11
7 5 4 4 3 3 1 1 3 5 5 5 5 5 6 6 4 4 5 7 7 8 9 8 8 7 6 6 5 5 5 4 5 6 8 9 10 9 10 11 11 11 11
7 5 4 4 3 3 2 2 4 5 5 6 6 6 6 5 4 4 4 7 8 7 7 7 7 7 6 6 6 7 6 6 6 6 7 7 8 8 8 8 9 8 10
6 6 5 4 3 3 2 4 4 4 6 6 6 6 7 7 4 4 5 8 7 7 6 6 6 6 5 4 5 6 6 6 4 4 5 5 6 6 6 7 9 10 11
6 5 4 4 3 3 3 3 5 5 5 6 6 6 6 7 5 5 6 7 9 8 8 7 6 6 4 4 6 7 8 8 7 7 9 9 8 8 8 9 9 10 10
5 4 3 3 3 3 3 4 5 7 7 8 8 8 7 7 7 6 6 9 9 9 9 9 8 7 6 5 5 7 7 6 7 9 10 11 10 9 9 8 8 9 10
5 4 4 3 3 3 5 6 7 7 8 9 14 12 10 9 7 7 7 8 8 10 10 9 8 6 6 6 6 6 6 7 9 10 11 11 10 10 8 7 7 7 7
5 5 5 4 4 5 7 8 8 8 10 10 9 13 11 9 10 8 8 8 8 10 9 9 7 8 8 8 7 7 8 8 9 10 10 10 9 9 8 8 8 7 7
6 5 5 6 6 6 7 7 8 11 11 9 11 12 13 11 12 11 10 12 9 9 10 9 9 9 9 9 10 9 10 10 11 12 11 10 9 9 8 8 9 7 8
6 6 7 7 7 7 8 8 8 9 10 11 12 12 18 18 12 8 9 10 10 10 11 11 11 11 12 11 11 11 11 11 12 12 11 11 10 10 10 9 8 10 12
7 7 8 8 9 8 8 8 6 7 7 7 8 13 15 10 7 7 8 8 8 10 12 13 13 13 13 13 13 12 12 11 11 11 11 11 11 11 10 10 11 11 11
7 7 8 8 9 9 10 10 12 8 5 5 7 7 8 8 7 7 8 9 10 10 13 14 14 15 14 14 14 13 14 12 12 12 12 12 11 11 11 11 11 11 11
8 8 9 10 10 11 8 8 8 9 13 10 7 7 8 8 8 8 8 10 15 14 14 14 14 14 14 14 14 14 14 13 13 13 13 13 12 12 13 12 12 15 11
7 8 10 12 12 8 8 8 8 8 8 11 11 10 12 9 8 8 8 17 19 18 16 14 14 14 14 14 15 15 15 15 16 16 15 14 13 12 12 14 14 14 13
7 9 10 11 11 8 8 8 8 8 9 9 12 14 14 15 19 20 20 21 21 19 19 16 14 14 15 15 15 16 16 16 17 17 17 16 15 13 13 13 12 13 15
9 9 10 10 9 8 8 8 8 8 8 9 12 15 16 17 18 19 18 19 19 19 21 19 19 17 16 16 15 16 17 18 18 18 18 17 17 15 14 12 13 13 13
10 11 11 11 8 8 8 8 8 9 8 9 11 13 15 19 16 16 18 19 19 19 19 19 19 19 16 16 16 18 18 20 19 18 18 18 17 15 15 15 14 17 16
12 13 10 8 7 9 8 8 8 9 9 8 9 13 14 16 17 16 17 19 18 18 19 19 21 20 19 18 18 17 18 19 18 18 19 18 17 16 17 17 18 16 19
12 13 11 8 12 12 9 7 8 7 9 12 10 9 14 14 17 17 18 19 19 19 20 20 19 18 19 19 18 17 17 19 18 18 19 18 17 16 17 16 17 18 19
11 12 13 12 13 11 11 9 7 7 8 13 13 11 11 15 15 17 18 18 18 19 19 20 20 18 18 18 17 17 17 17 18 18 18 18 18 18 18 17 19 19 21
9 10 10 8 13 10 11 9 9 8 7 7 11 12 11 13 14 14 17 17 18 19 19 20 19 19 18 18 17 16 17 16 17 17 17 17 19 19 19 19 19 19 19

GFSGL_con_lsi_018.txt.gz
Lid_Strength_Index
7 7 7 7 7 7 8 7 7 7 6 5 5 6 5 5 5 6 6 5 5 6 6 6 6 6 7 7 6 5 5 4 7 7 6 6 6 6 5 4 2 1 1
6 7 7 7 8 8 8 7 6 6 5 5 4 4 5 5 6 6 6 6 6 7 7 7 7 6 8 7 7 7 7 6 7 8 8 8 7 6 6 6 5 4 3
7 8 7 7 8 8 7 7 6 6 5 4 5 4 5 5 6 6 6 7 7 7 7 7 8 7 8 8 7 7 7 5 6 8 9 8 8 7 7 7 6 6 4
7 7 8 7 7 7 7 5 4 5 3 3 4 4 5 5 5 6 6 7 8 7 7 7 8 8 8 8 7 7 6 7 7 7 8 8 8 7 7 8 9 8 8
8 8 8 7 7 6 6 5 4 3 3 4 4 5 5 5 6 7 7 7 8 8 7 7 7 7 6 6 6 7 6 7 7 8 8 9 9 9 10 9 10 10 9
10 8 7 6 6 5 5 5 4 3 4 5 4 5 6 5 5 5 5 8 7 8 8 8 8 6 6 5 5 5 5 7 7 7 8 9 9 9 9 10 11 12 12
8 8 7 6 6 6 5 3 3 4 5 5 5 5 7 6 4 4 4 7 7 8 8 8 7 6 6 6 5 5 5 5 6 6 7 8 8 8 9 10 11 11 11
9 8 7 6 6 5 4 4 3 5 5 6 6 7 7 6 4 5 5 7 8 8 8 8 8 8 7 7 6 5 5 5 6 6 7 7 7 7 8 8 9 9 8
8 8 7 6 6 5 5 5 4 5 7 7 6 7 8 8 6 6 7 9 9 9 8 8 8 8 7 5 6 6 7 6 5 4 4 4 4 4 5 7 9 9 11
8 7 7 6 5 4 4 5 5 7 6 6 7 8 7 9 7 7 7 10 12 10 9 9 8 7 7 6 6 7 7 7 7 7 7 7 7 8 8 9 10 11 12
7 7 7 6 5 4 4 5 7 7 8 9 9 9 8 8 9 8 7 9 10 10 10 10 9 7 6 6 6 7 7 6 6 7 8 9 9 9 9 9 9 10 11
8 8 7 6 5 5 7 8 8 9 9 10 16 13 11 10 8 8 8 8 8 10 10 10 9 8 7 7 7 6 6 7 7 8 9 10 10 10 9 8 8 7 8
8 8 7 7 6 6 8 9 9 9 11 11 10 14 12 10 11 9 8 8 8 10 10 9 9 9 8 8 8 8 8 9 9 10 10 10 9 8 7 7 7 7 7
8 8 7 7 7 7 8 8 9 12 13 10 11 12 14 12 12 11 10 12 9 10 10 10 10 10 10 10 10 10 10 10 10 11 11 10 9 9 9 8 9 8 8
8 7 8 8 8 7 8 9 9 9 10 11 12 13 19 19 13 8 9 10 10 11 14 13 12 13 13 12 12 12 12 11 12 12 11 11 10 10 9 9 9 10 12
8 8 9 9 10 8 8 8 6 7 7 6 7 13 15 10 8 7 8 8 9 10 15 16 15 15 15 14 14 14 13 12 12 12 12 12 12 11 10 10 11 12 11
8 7 9 8 9 10 10 10 13 9 6 6 6 7 7 8 7 8 8 9 10 12 18 18 17 16 15 14 15 15 15 14 13 13 13 13 13 12 12 13 13 13 12
7 8 9 9 10 9 12 8 12 12 15 13 8 6 7 8 8 8 9 11 16 15 17 19 16 15 15 15 15 16 15 16 16 16 15 15 14 13 13 13 13 16 14
6 9 11 13 11 11 12 10 10 11 10 12 13 11 12 9 9 9 9 18 19 18 17 17 19 16 16 15 16 17 19 18 19 18 18 17 16 14 14 13 14 17 16
6 8 11 12 12 10 11 11 9 10 12 11 15 15 15 16 20 21 23 24 23 19 20 17 18 18 19 17 18 18 18 19 19 19 19 19 18 16 15 14 14 14 16
6 7 8 8 8 8 10 8 9 10 10 13 11 13 16 16 19 20 19 21 21 20 22 19 21 22 21 20 17 18 19 22 20 20 20 19 19 18 16 15 15 15 15
8 8 8 8 10 13 9 8 8 10 10 14 13 14 16 20 19 16 17 18 19 19 19 20 20 19 19 19 20 21 20 21 21 20 20 19 19 17 17 18 18 21 20
9 12 12 11 10 12 15 9 8 10 11 9 13 13 15 14 16 15 15 17 19 19 21 21 22 20 21 22 22 20 20 19 19 20 21 20 18 17 19 19 20 20 22
11 13 12 12 15 15 17 13 8 10 9 12 16 15 14 13 16 16 16 18 22 20 23 22 20 19 19 22 22 20 18 20 19 19 20 20 19 18 19 19 19 21 23
11 13 14 13 12 13 14 14 10 7 9 10 14 18 15 13 13 17 15 18 18 20 19 21 21 19 19 20 20 18 19 18 19 18 19 19 19 19 20 19 21 21 23
7 7 9 10 11 13 13 12 12 10 8 8 9 14 14 14 14 16 16 20 18 18 20 21 20 19 20 20 19 18 19 18 17 17 17 17 19 20 20 21 21 21 20

GFSGL_con_lsi_021.txt.gz
Lid_Strength_Index
7 8 8 8 8 8 8 8 8 8 7 6 6 6 7 7 6 6 6 5 6 7 8 7 7 7 8 8 7 7 7 7 8 7 6 5 6 6 6 5 5 5 3
8 8 8 8 8 8 8 8 8 8 8 7 7 6 5 5 5 6 5 5 7 8 7 8 7 6 8 8 8 8 8 7 8 9 8 8 7 6 7 7 5 4 5
9 9 9 9 8 8 8 8 8 8 7 7 5 6 5 5 5 5 6 7 7 7 7 8 8 8 9 9 8 8 8 6 7 8 8 8 8 8 8 8 7 7 5
10 9 9 8 8 8 9 9 8 7 6 5 5 5 5 4 5 6 7 7 7 7 7 7 8 8 9 8 8 8 6 7 7 7 7 8 8 7 8 8 9 8 8
10 9 9 8 8 8 8 8 7 5 4 4 5 6 5 5 6 7 7 7 8 8 7 7 7 6 5 6 7 8 8 8 6 6 7 7 7 8 9 8 9 10 9
10 9 8 8 8 8 8 7 6 5 5 5 5 6 6 6 4 4 5 7 7 8 8 8 7 6 7 6 6 6 6 7 7 7 7 8 8 9 9 9 9 11 11
10 9 9 9 8 8 7 7 6 5 4 7 6 7 7 7 4 5 5 7 8 8 8 8 8 8 8 8 7 6 6 5 5 6 7 7 8 7 8 9 10 10 11
10 9 9 9 9 8 7 7 7 6 6 7 8 7 8 7 6 6 6 9 9 9 9 9 9 9 8 8 7 6 7 5 5 5 5 6 7 7 7 7 8 8 9
10 10 9 9 8 8 7 7 7 6 7 7 7 8 9 9 7 7 8 10 10 10 9 9 9 9 8 6 7 7 7 6 4 4 4 4 4 5 4 6 7 8 10
10 9 9 9 9 8 7 6 6 7 7 7 8 8 8 10 8 8 8 11 14 10 10 9 9 8 7 7 8 8 8 7 6 6 7 6 6 7 6 7 8 10 11
9 9 9 9 9 8 7 7 7 7 8 9 10 9 9 9 10 8 8 11 11 10 10 10 9 8 8 7 7 8 7 7 6 6 7 7 7 7 7 7 8 10 11
9 10 9 9 8 8 9 8 8 8 9 10 17 14 11 11 9 9 8 8 8 10 10 10 10 9 9 8 8 8 8 8 8 8 8 8 8 8 7 7 7 8 8
10 10 9 8 8 8 9 9 9 9 11 11 10 14 12 10 11 9 8 8 8 11 11 10 9 10 10 10 9 9 10 10 10 10 10 9 8 7 7 7 7 7 7
9 8 8 8 8 8 8 8 9 11 13 10 12 13 14 13 13 12 10 13 9 11 12 13 12 11 12 12 12 11 11 11 11 11 11 10 8 8 8 7 8 8 8
8 7 8 8 8 8 8 8 8 8 9 11 12 13 20 19 14 8 9 11 14 12 16 17 15 14 15 14 13 13 13 12 13 13 13 12 11 10 10 9 9 10 12
7 7 7 8 9 8 8 8 6 6 6 6 6 13 15 10 8 7 8 9 9 10 16 20 21 19 16 15 15 15 15 15 14 13 13 13 13 12 11 10 10 11 11
7 6 6 7 8 9 10 9 10 9 6 6 6 6 7 8 7 8 8 10 10 12 19 20 23 20 19 15 15 16 16 16 16 15 15 15 14 13 12 12 12 12 12
6 7 7 7 7 8 10 10 12 12 14 13 9 7 6 7 7 8 9 11 16 16 18 20 21 21 19 16 15 16 17 18 18 18 17 17 16 15 14 13 13 15 14
6 6 7 8 11 11 11 13 12 13 13 13 14 12 12 7 8 8 10 18 19 19 18 18 21 19 19 19 21 19 19 19 20 21 19 19 18 16 15 14 14 16 16
5 6 8 9 10 9 8 10 10 9 13 13 15 15 15 16 19 21 23 25 24 20 20 18 17 18 21 21 24 25 20 20 19 20 21 21 20 19 16 16 15 18 17
5 6 7 8 8 7 9 9 9 11 9 13 14 16 14 15 16 17 17 21 19 18 20 18 20 22 22 23 20 23 23 24 20 20 20 20 21 20 18 18 17 17 16
5 6 7 7 7 11 12 10 11 11 10 13 14 15 16 18 16 15 17 16 18 18 17 19 19 19 19 19 21 25 24 26 23 21 20 20 19 19 19 19 20 22 19
5 6 8 10 11 13 15 14 14 12 9 12 11 13 17 17 15 15 16 15 18 19 18 20 21 19 21 23 24 21 22 22 23 22 21 21 19 18 20 21 20 20 21
5 7 9 11 15 15 16 15 16 13 11 11 11 15 15 16 16 16 16 17 20 20 22 20 18 18 19 22 24 22 19 22 22 21 22 20 19 18 20 20 19 21 22
5 8 10 11 13 13 14 14 14 13 9 9 12 11 12 14 16 15 16 17 18 21 18 19 19 18 18 19 20 19 21 19 21 21 21 20 20 20 19 20 22 20 22
5 7 8 8 9 10 10 11 10 10 11 9 9 10 11 11 11 13 15 17 18 18 18 21 19 18 18 19 19 18 20 20 21 20 21 19 19 19 20 20 21 20 20

GFSGL_con_lsi_024.txt.gz
Lid_Strength_Index
8 8 9 9 9 9 9 9 9 8 8 8 8 8 8 7 7 7 6 6 6 6 6 7 7 7 7 8 8 8 8 8 10 9 7 5 5 5 4 4 4 4 4
9 10 10 9 9 10 10 9 9 9 9 8 9 7 6 6 7 6 7 6 6 7 7 7 7 6 8 8 8 9 8 8 8 9 7 7 6 5 5 6 5 4 4
10 11 10 10 10 10 10 9 9 9 9 8 6 6 7 7 6 6 7 7 7 7 7 8 8 8 8 8 8 8 8 7 7 7 7 5 6 6 6 6 6 5 5
11 11 10 10 10 10 10 9 9 9 8 7 6 5 6 6 6 6 7 7 7 7 7 7 8 8 8 8 8 8 8 8 8 8 8 7 6 5 6 7 7 6 6
11 10 10 10 9 9 9 9 9 8 7 7 7 7 6 6 6 7 7 7 7 8 7 7 7 7 5 6 7 8 8 8 8 8 8 7 7 6 6 6 7 7 7
12 10 9 10 9 9 10 9 9 8 7 6 7 7 7 6 4 4 6 7 8 8 9 9 8 8 7 7 7 7 7 8 8 8 8 8 7 6 5 6 7 8 9
12 10 10 10 10 10 10 9 9 7 6 8 8 8 8 7 5 6 6 8 9 9 10 10 9 8 8 9 8 7 7 6 6 6 7 7 6 5 5 6 7 8 8
11 10 10 10 10 10 10 9 9 9 8 9 8 8 8 7 7 7 7 9 10 9 9 10 9 9 9 8 8 8 7 7 6 5 5 5 4 4 5 5 6 7 7
11 11 10 10 11 10 10 8 8 7 8 8 7 8 9 9 7 7 8 10 10 10 9 9 9 9 8 7 8 9 8 7 5 4 4 4 4 4 4 5 7 8 9
11 11 11 10 11 10 9 9 8 8 8 7 8 8 8 10 8 8 8 11 13 11 9 9 8 8 8 8 9 10 10 8 7 6 5 5 5 5 5 6 7 9 8
11 11 11 10 10 9 9 9 9 9 8 9 9 9 9 9 10 8 7 10 11 10 10 10 9 8 8 8 8 9 9 8 8 7 7 6 6 6 6 6 7 8 9
11 11 11 10 9 8 9 9 8 9 9 10 16 13 10 10 9 9 7 8 8 13 12 11 10 9 9 9 10 9 9 10 10 10 9 8 7 7 6 5 6 7 7
11 11 10 8 8 8 9 9 9 10 12 11 10 13 12 10 11 9 8 8 9 13 11 11 10 10 10 10 10 10 11 11 11 12 11 10 9 7 6 6 5 6 6
11 10 9 8 8 8 8 8 9 12 11 10 11 12 13 13 13 12 10 12 11 11 13 13 13 11 14 13 12 12 13 12 13 13 12 11 10 9 8 7 7 7 7
10 9 8 8 8 8 8 9 8 8 9 10 11 12 19 19 13 10 9 13 16 13 17 18 16 16 15 14 14 13 14 14 14 13 14 13 12 11 10 9 9 9 9
9 9 7 7 8 8 8 8 6 6 6 6 6 12 15 10 8 7 7 8 9 11 16 20 23 23 19 16 15 15 15 16 16 15 14 13 13 13 11 10 10 10 10
9 7 7 7 7 8 9 9 11 9 6 5 5 5 6 9 7 7 8 9 10 12 18 20 24 25 22 16 16 15 16 16 16 17 16 16 15 14 13 12 12 12 12
7 8 7 7 7 7 7 8 10 12 13 13 9 7 6 5 6 7 8 10 16 16 17 19 21 21 18 17 16 17 17 17 18 18 18 18 17 16 14 14 14 15 14
7 7 7 8 7 8 10 9 11 12 11 12 14 12 13 6 6 7 8 16 17 18 17 17 19 18 17 17 22 22 24 19 19 20 20 19 20 17 16 15 15 17 16
6 6 7 8 9 9 8 11 11 10 9 12 13 14 16 16 18 20 22 23 22 17 18 16 16 17 18 19 23 25 22 23 20 19 19 20 20 20 18 17 16 16 15
6 5 7 7 8 9 8 10 11 9 9 9 12 17 16 13 14 17 17 20 18 17 17 17 17 19 20 20 18 21 21 24 22 20 19 19 19 19 18 18 18 17 16
7 6 6 7 7 8 8 10 12 12 11 10 11 14 14 13 15 15 15 16 16 16 16 17 16 16 16 16 17 23 22 23 23 22 21 19 18 18 18 18 18 19 18
6 6 6 7 8 9 16 14 14 14 13 13 12 12 15 15 16 15 14 15 16 17 17 18 18 17 18 19 20 18 19 18 19 22 22 21 19 18 18 18 18 18 18
6 5 6 7 9 10 13 14 14 15 13 12 12 12 12 13 14 14 14 14 16 18 21 19 17 16 16 20 21 20 17 19 19 19 22 21 19 18 18 18 18 18 18
5 5 6 8 10 10 11 12 12 12 12 11 10 10 10 11 10 13 13 13 14 17 17 19 18 17 16 17 18 18 19 18 20 21 20 20 21 21 19 17 19 18 18
5 5 5 6 9 9 8 9 9 9 9 9 9 9 9 9 9 10 10 13 14 14 14 16 17 17 17 17 17 18 20 19 20 21 21 18 19 19 19 18 17 17 17

GFSGL_con_lsi_027.txt.gz
Lid_Strength_Index
5 6 6 6 6 6 6 5 5 5 5 5 5 5 5 7 5 4 4 4 3 3 3 3 4 4 4 4 4 5 5 6 8 6 5 4 4 4 3 2 2 1 1
7 7 6 6 6 6 6 6 6 6 6 6 6 6 5 5 4 3 4 3 3 3 4 4 4 4 4 4 5 5 5 5 6 8 6 5 4 3 3 3 2 2 1
7 7 7 6 7 7 7 7 7 6 6 5 6 5 5 4 4 4 4 4 4 4 4 4 5 5 5 5 5 6 6 6 6 7 7 5 5 4 4 3 2 2 2
8 7 7 7 7 7 7 7 7 6 6 5 5 6 5 5 4 4 4 4 4 4 4 5 5 6 6 6 7 7 7 7 7 8 8 7 6 5 4 4 4 2 2
8 8 7 7 7 7 7 7 6 6 6 6 7 6 5 5 5 3 3 4 5 5 6 6 6 7 7 7 7 7 7 8 8 8 8 7 7 6 6 5 5 4 2
9 9 7 7 7 7 7 7 6 6 6 6 6 5 5 5 5 5 5 5 6 7 7 7 7 8 7 7 7 7 7 8 8 8 8 7 6 5 5 5 5 5 6
9 9 8 8 8 7 7 7 7 6 6 5 5 5 5 5 6 6 6 6 7 7 8 8 8 8 7 7 7 7 6 7 7 7 7 6 6 5 4 5 4 5 5
9 9 8 8 8 8 8 8 7 6 5 4 5 5 5 6 6 7 7 6 7 7 8 8 8 8 8 8 7 7 7 7 7 6 5 4 4 3 4 4 3 4 4
9 9 8 8 8 8 8 8 7 5 4 5 5 6 6 6 7 7 7 6 7 7 7 7 8 8 8 7 8 8 9 8 7 6 5 4 4 3 3 4 5 5 6
9 9 8 8 8 9 8 8 7 5 5 5 6 6 7 6 8 7 7 6 7 7 7 8 9 8 8 8 8 9 10 9 8 8 6 5 4 4 4 4 5 6 6
9 9 9 8 9 8 8 7 6 6 6 6 6 6 6 6 6 8 7 7 7 8 9 9 9 9 8 9 9 9 10 9 9 8 7 6 5 5 4 3 4 5 6
9 9 9 8 8 8 7 6 6 6 6 6 7 6 6 6 7 7 7 7 7 8 9 9 9 9 9 10 9 9 10 10 9 9 9 8 7 6 5 4 3 3 4
10 9 9 8 8 7 7 6 6 6 6 6 6 6 6 6 6 8 8 7 8 8 8 10 10 10 10 10 10 10 11 10 11 10 10 10 8 7 5 4 3 3 4
10 9 9 8 7 6 6 6 6 6 6 6 6 6 6 6 6 6 6 6 8 8 9 10 11 11 11 11 10 10 11 11 12 11 10 9 8 8 7 6 5 5 5
10 9 8 7 7 6 6 6 6 5 5 5 5 5 6 6 6 7 7 6 7 8 10 10 10 11 11 11 10 11 11 12 12 11 11 10 9 9 8 7 7 6 7
10 9 8 7 6 6 6 5 6 6 6 5 5 6 5 6 7 7 6 7 8 10 9 10 11 12 12 12 12 12 12 13 13 12 12 11 11 10 9 8 8 8 8
10 9 7 7 6 6 6 6 6 5 6 5 5 5 5 5 7 6 6 7 8 10 9 10 11 11 11 11 12 12 12 13 14 13 13 13 12 11 10 9 9 9 9
8 8 6 6 5 5 5 5 5 6 6 5 6 6 5 5 5 6 6 7 8 9 9 9 10 10 10 11 11 12 12 12 13 14 13 13 13 12 11 11 10 11 10
7 6 6 5 5 5 5 5 6 6 6 6 5 7 7 7 6 5 6 7 7 8 8 9 9 9 10 10 10 11 12 12 14 14 14 14 14 13 13 12 12 12 12
5 6 6 6 5 5 5 6 6 6 6 6 6 6 5 9 7 6 7 7 8 8 7 8 8 8 9 9 10 11 11 11 12 13 14 14 14 14 14 13 13 12 12
5 5 6 6 5 5 5 5 6 6 6 6 6 5 8 7 6 6 6 7 8 7 7 7 7 8 8 9 9 10 11 11 12 13 13 13 14 14 14 13 13 13 13
5 5 6 6 5 5 5 5 5 6 6 6 6 5 10 9 7 6 6 6 6 7 6 6 7 7 7 8 8 9 10 11 11 12 13 13 13 13 14 14 14 13 13
5 5 5 6 5 5 5 5 5 6 6 6 6 6 6 7 7 7 6 6 6 6 7 7 7 8 8 9 9 9 10 10 10 12 13 13 12 12 13 13 14 14 14
6 6 6 6 5 5 5 6 6 7 7 6 6 6 6 6 6 6 6 5 6 6 7 8 8 8 8 8 9 9 10 10 10 11 13 13 12 12 12 13 13 14 14
6 6 6 5 4 5 5 6 6 6 6 6 6 6 6 6 6 6 5 6 6 6 7 9 9 9 9 10 9 10 10 12 12 13 12 12 12 13 13 12 13 13 14
6 6 6 6 5 5 5 5 5 5 6 6 5 5 5 5 5 5 5 5 6 7 7 7 8 9 9 9 10 11 13 14 13 15 12 11 12 11 11 12 13 12 13

GFSGL_con_lsi_030.txt.gz
Lid_Strength_Index
4 4 4 5 5 4 5 5 5 5 5 6 6 5 5 4 4 4 4 3 3 2 2 2 1 1 2 2 2 3 4 4 6 5 3 3 3 3 2 2 2 1 1
5 5 5 5 5 5 5 6 5 6 6 6 5 5 5 5 4 4 4 3 3 2 2 2 2 2 2 3 3 4 4 4 6 6 5 4 4 3 3 3 3 2 1
6 6 6 6 5 6 6 6 6 6 6 5 5 5 5 5 4 4 4 3 2 2 2 2 2 3 4 4 4 4 5 5 5 5 6 5 5 4 4 3 3 2 2
6 6 6 5 5 6 6 6 6 6 6 5 5 5 5 5 5 4 3 3 2 2 2 3 3 4 5 5 5 5 6 6 6 6 7 7 6 5 4 5 5 3 3
7 6 6 5 5 6 6 6 6 6 5 5 5 5 5 4 4 3 2 2 2 3 3 4 4 5 6 6 6 6 6 7 7 7 7 7 7 6 6 4 5 4 3
7 6 6 6 6 6 6 6 6 6 6 5 6 6 5 4 7 7 6 3 3 4 5 4 4 5 5 7 7 7 6 7 7 7 8 8 7 6 4 4 4 4 5
7 7 7 6 7 7 7 7 7 7 5 6 6 4 4 3 7 7 7 4 4 4 5 5 5 5 6 6 7 6 6 6 7 7 8 7 6 5 4 4 4 4 4
8 8 7 7 7 7 7 7 7 6 6 6 5 4 3 4 7 7 7 4 4 4 5 5 5 6 6 7 7 7 6 6 6 7 6 6 5 4 3 3 3 3 2
8 8 8 7 8 7 7 7 7 6 6 6 4 3 3 4 7 7 6 4 4 5 5 5 6 7 8 7 8 8 7 7 6 7 7 6 5 4 3 3 4 5 5
8 8 8 7 7 7 7 7 6 6 6 5 4 3 5 4 7 7 6 4 5 5 5 5 7 8 9 8 8 8 9 8 8 8 7 6 5 4 4 3 4 5 5
8 8 7 7 7 7 7 6 6 6 6 5 5 4 3 4 4 7 7 5 5 6 6 6 6 8 9 9 9 8 9 8 8 8 8 6 5 4 4 3 2 3 5
8 8 8 7 7 8 7 6 6 6 5 5 5 4 3 3 5 6 7 7 7 6 6 6 7 9 9 9 9 9 9 9 8 8 8 8 7 6 5 3 3 2 2
9 8 8 7 8 7 6 6 6 5 5 5 5 4 4 3 3 6 7 7 7 6 6 7 9 9 9 9 9 9 9 8 9 9 9 8 8 6 5 4 3 2 2
9 9 8 8 8 7 6 7 6 5 5 5 5 5 5 4 4 4 4 5 6 6 6 6 8 10 9 9 8 8 8 9 10 9 9 8 7 6 6 5 5 4 3
9 9 8 7 7 7 7 6 5 4 4 5 5 4 4 5 5 5 5 5 5 6 8 7 7 7 8 8 8 8 8 9 10 9 9 9 8 8 7 5 5 5 5
9 8 8 7 7 7 6 6 6 6 6 6 5 5 3 4 5 6 6 6 7 8 7 7 7 7 8 8 8 8 8 9 10 10 10 9 10 9 8 7 6 7 7
9 8 7 8 7 6 6 6 6 5 5 5 5 5 5 4 4 5 6 6 7 8 7 6 7 7 7 7 8 8 9 9 10 10 11 10 10 10 9 8 8 8 8
7 8 6 6 6 5 5 5 5 5 5 4 5 5 5 5 5 5 6 6 7 8 7 6 7 6 7 7 7 8 8 8 9 10 10 10 10 10 10 10 9 9 9
6 5 5 5 4 5 4 5 5 4 5 5 4 5 5 5 5 5 5 5 7 6 6 6 6 6 6 6 6 7 8 8 9 9 9 10 10 11 11 10 10 10 10
5 6 6 5 5 5 5 5 5 4 4 4 5 5 4 5 5 5 5 5 6 6 5 5 5 5 6 6 6 6 7 7 8 9 9 9 9 10 11 11 11 11 10
4 4 5 4 5 5 5 5 4 4 4 4 4 3 5 5 5 5 5 5 5 5 5 5 5 5 5 6 6 6 7 7 7 8 9 9 10 10 10 11 11 11 11
4 4 4 4 4 4 5 4 4 4 4 4 4 3 5 5 5 4 4 4 4 4 4 4 5 4 5 5 5 6 7 7 7 7 8 9 9 9 9 10 11 11 11
4 4 5 5 4 5 5 5 4 4 4 4 4 4 4 4 4 4 4 3 3 3 3 4 4 4 4 5 5 5 6 7 7 7 9 9 9 8 9 9 10 11 12
4 5 5 5 5 4 4 5 4 4 4 4 4 4 4 4 4 4 4 3 3 3 3 4 4 4 4 5 5 5 6 6 7 7 10 9 9 9 9 10 9 10 11
5 5 5 5 5 5 5 5 4 4 4 4 4 4 3 4 4 4 4 3 4 3 3 3 3 4 5 5 5 6 6 8 9 9 9 10 10 10 10 9 10 10 10
5 5 5 5 5 5 5 5 4 4 4 4 4 4 4 4 4 4 3 3 4 4 4 3 4 4 4 5 6 6 8 10 10 12 9 9 9 9 8 9 10 9 10

GFSGL_con_lsi_033.txt.gz
Lid_Strength_Index
3 3 4 5 5 4 5 5 5 4 5 6 6 6 5 5 5 5 4 4 4 4 3 3 2 1 1 1 1 2 2 3 5 4 3 3 3 3 2 2 2 1 1
3 4 5 5 5 5 5 5 5 5 5 6 6 6 5 5 5 5 4 5 5 4 3 3 2 2 2 2 2 3 3 3 4 6 5 4 4 3 3 3 3 3 2
4 5 5 5 5 5 5 5 5 5 6 6 6 6 6 6 5 5 5 5 4 3 3 2 2 2 3 3 3 4 4 5 4 6 6 5 4 4 4 4 4 3 3
5 5 6 6 5 5 5 5 5 6 6 6 6 6 5 5 5 5 5 5 4 3 2 2 3 3 4 4 5 5 5 6 6 7 6 6 5 5 5 6 6 4 4
5 6 6 5 5 5 5 5 6 6 6 6 6 6 6 6 6 5 5 4 4 3 3 3 3 4 5 5 6 6 7 7 7 7 7 7 7 7 7 6 6 5 3
6 6 6 6 6 6 6 6 6 6 6 6 6 6 6 6 9 8 8 4 4 4 4 3 3 3 4 5 5 6 6 8 7 7 7 8 8 7 6 6 5 5 6
6 6 6 7 7 7 6 7 7 7 6 6 6 6 5 5 8 9 8 5 4 3 3 4 4 4 5 5 6 6 6 6 6 6 7 7 8 7 6 6 6 5 4
6 7 7 7 7 7 7 7 7 6 6 6 6 5 5 6 8 8 8 5 3 3 3 4 4 5 5 7 7 7 7 6 6 6 6 7 7 6 6 6 5 4 3
7 7 8 7 7 7 8 7 7 6 6 6 6 5 5 5 8 8 7 4 4 4 4 4 4 5 7 8 8 8 8 7 5 5 6 6 6 5 5 5 5 5 5
8 8 8 7 8 8 7 7 6 6 7 6 6 5 6 4 7 7 7 4 4 4 4 4 6 7 8 8 9 9 9 8 8 8 7 6 5 5 5 4 4 5 5
8 8 8 8 7 7 7 7 7 7 6 5 6 5 5 4 4 6 6 5 5 5 5 5 5 7 8 9 9 9 8 8 8 8 7 7 6 5 5 4 3 4 5
8 8 8 8 8 8 7 7 7 6 6 6 6 5 4 4 5 6 6 6 6 6 6 5 5 7 8 8 8 8 9 8 7 7 8 8 7 7 6 4 3 2 2
8 9 8 8 7 7 7 7 7 6 6 5 6 5 5 3 3 5 5 6 6 6 5 5 7 7 8 7 8 8 8 7 8 8 9 9 8 6 5 4 3 2 2
9 9 8 8 7 6 6 6 6 6 5 6 5 5 5 4 3 3 4 4 6 6 5 5 6 7 7 7 7 6 6 7 8 8 9 8 7 7 6 5 5 4 4
9 8 8 7 7 7 6 5 4 4 4 5 4 4 4 4 4 4 4 4 4 5 7 6 6 6 6 6 6 6 6 7 8 8 9 9 8 8 8 6 6 5 6
9 8 7 7 7 6 5 5 5 6 5 5 5 5 2 4 5 5 5 5 6 6 7 7 6 6 6 7 6 7 6 7 7 8 8 9 9 9 9 7 7 7 7
9 8 8 8 6 5 4 4 5 4 5 5 5 5 5 4 4 4 5 5 6 6 8 7 6 6 6 6 6 6 7 7 7 7 8 8 9 9 9 8 8 8 8
8 8 6 4 4 5 5 4 4 5 5 4 4 5 4 4 4 4 4 5 6 6 7 6 6 6 6 6 6 6 6 6 7 7 8 8 8 9 10 10 9 9 9
5 4 3 3 3 4 4 5 4 4 4 4 3 4 4 5 4 4 4 5 6 6 6 6 5 5 5 5 5 6 6 7 7 7 7 8 8 9 9 10 10 10 10
3 5 5 3 3 4 4 5 5 4 4 4 4 3 3 4 5 5 4 5 5 5 5 5 5 4 4 5 5 5 6 6 6 7 7 7 7 8 9 9 10 11 10
3 2 4 3 3 3 4 4 4 4 4 4 4 3 3 4 3 4 4 4 4 4 4 5 4 4 4 5 5 6 6 6 6 7 7 7 8 8 8 8 9 10 10
2 3 3 3 3 3 4 4 4 4 4 4 4 3 4 4 4 4 3 3 3 3 3 3 4 4 4 4 5 5 6 6 6 7 7 8 8 7 7 8 8 9 10
3 4 3 3 4 4 4 3 4 4 4 4 4 3 3 3 3 3 4 3 3 3 3 3 3 3 3 3 3 4 6 6 6 6 7 8 8 7 8 8 8 9 10
3 3 4 4 4 4 4 4 4 4 4 4 4 3 3 3 3 3 3 3 3 3 3 3 3 3 3 3 3 4 4 5 5 6 8 8 8 8 8 8 8 9 9
4 4 4 4 4 4 4 4 4 4 4 4 4 4 3 3 3 3 3 3 3 3 3 3 3 3 3 3 3 4 4 5 6 6 7 8 9 9 9 9 9 9 8
5 4 4 4 4 4 4 5 5 5 5 4 4 3 3 3 3 3 3 3 3 3 3 3 3 3 4 3 3 4 4 6 8 9 8 8 8 8 8 8 9 9 8

GFSGL_con_lsi_039.txt.gz
Lid_Strength_Index
6 6 7 7 6 6 7 6 7 7 7 9 7 9 8 8 8 9 9 8 9 10 10 9 9 8 8 8 8 8 8 8 10 9 7 7 8 7 6 6 5 6 6
5 6 7 7 6 6 6 7 7 7 7 8 8 8 8 8 9 9 9 9 10 10 10 10 9 7 10 10 9 9 9 9 9 11 9 8 9 8 7 8 6 5 5
5 6 6 6 6 7 6 6 6 7 8 8 8 8 8 8 9 9 9 9 9 9 9 9 9 10 11 10 9 9 9 8 9 10 10 9 9 8 8 7 7 7 5
7 8 7 6 6 6 6 7 7 7 8 8 8 8 8 8 8 8 8 10 10 10 10 10 9 10 10 10 9 9 9 10 10 10 10 10 9 8 9 9 8 7 7
6 6 6 6 6 6 6 7 7 7 8 8 8 8 8 8 8 8 9 10 10 11 10 9 9 7 4 7 8 9 9 10 10 11 11 10 10 9 9 8 9 9 9
6 6 5 6 6 7 7 7 8 8 8 8 8 8 8 8 9 8 10 11 11 11 10 9 8 6 6 5 6 6 7 10 11 12 11 11 10 9 8 10 10 11 12
6 6 6 6 7 7 7 8 8 9 8 8 8 8 8 9 9 9 9 11 10 10 9 9 8 6 7 8 7 7 8 8 8 11 11 10 11 10 9 10 10 10 10
7 7 7 7 8 8 9 9 8 8 9 9 9 8 8 8 8 9 9 11 10 9 9 8 8 8 8 8 9 9 9 9 9 9 10 10 10 9 8 8 9 8 8
8 9 8 8 9 9 8 8 9 8 9 9 8 8 8 9 8 8 9 9 9 8 7 7 7 8 7 7 9 9 10 10 8 7 7 7 6 6 6 7 9 9 10
9 9 9 8 9 8 8 8 8 9 8 8 8 8 8 9 7 7 7 10 9 9 8 8 6 8 7 7 10 11 12 11 10 10 10 9 7 7 6 7 9 9 9
8 8 8 8 8 8 8 8 8 9 9 9 9 9 7 7 7 5 6 8 8 8 8 8 8 6 6 6 7 10 11 9 9 10 10 9 8 8 7 7 8 8 8
9 8 8 8 8 7 8 8 8 9 9 9 9 8 7 6 6 5 5 6 7 9 8 8 8 5 5 6 7 7 7 8 13 12 11 11 10 10 8 8 7 7 6
9 9 9 8 7 7 8 8 9 9 8 8 8 9 8 6 6 5 5 5 5 8 8 8 6 5 5 6 6 6 8 10 12 15 12 12 11 9 8 8 8 8 6
9 9 8 8 8 8 8 7 7 9 9 8 8 8 7 8 6 8 7 6 5 7 8 8 9 8 10 9 9 8 8 10 11 12 13 12 11 11 11 10 10 9 9
8 8 8 8 8 7 6 7 7 7 8 8 8 7 9 9 6 5 6 7 8 7 12 10 8 11 10 9 10 9 10 10 11 13 13 12 11 10 11 10 10 9 11
9 9 10 9 9 7 7 7 6 6 5 5 5 6 7 4 4 3 4 5 5 5 8 11 14 15 13 10 10 10 11 11 11 12 14 12 12 12 11 10 10 11 11
10 9 9 8 8 8 8 8 7 7 5 5 4 4 4 4 4 3 4 4 4 5 11 13 15 14 12 9 9 10 11 11 11 12 13 14 13 11 12 11 11 11 12
9 8 7 7 7 7 7 7 7 8 8 7 6 4 4 4 4 4 4 4 6 6 9 11 12 12 10 9 8 10 11 12 12 13 15 17 18 15 14 12 11 16 12
6 8 7 7 7 7 6 6 6 6 7 7 7 8 7 4 4 4 4 5 7 8 8 8 9 9 9 9 9 10 13 14 15 17 17 16 17 15 15 13 13 14 15
6 8 8 7 6 7 7 5 5 6 6 6 6 7 7 10 7 6 5 5 7 7 8 8 7 8 8 8 7 9 12 13 15 16 16 15 19 18 17 16 15 16 13
9 8 9 8 7 7 7 7 5 6 5 5 5 6 7 6 6 6 6 6 6 6 7 7 7 7 7 7 8 8 9 10 11 11 13 16 20 17 16 16 16 13 13
9 9 9 9 8 8 7 6 6 7 8 8 8 8 7 5 5 6 5 5 5 5 5 5 6 6 7 7 7 9 9 10 11 12 14 16 16 16 17 16 17 17 15
12 11 10 9 9 8 7 6 6 8 9 9 9 7 5 5 5 6 5 4 4 4 4 4 5 5 5 5 5 6 7 8 9 9 12 14 15 16 18 17 17 17 17
11 11 10 10 9 8 8 7 6 7 7 7 7 7 5 5 5 6 5 4 3 3 3 3 4 4 5 5 5 5 6 6 8 8 10 12 13 15 18 17 17 18 19
13 13 13 13 12 11 9 9 8 8 9 9 9 9 9 8 7 6 6 5 3 3 3 3 3 3 4 4 4 5 5 6 7 9 10 11 14 16 18 17 19 17 18
15 14 16 15 14 13 12 11 11 11 11 11 11 11 10 9 9 9 8 9 9 7 3 3 2 3 3 3 3 4 5 5 7 8 9 10 12 16 17 17 18 18 16

GFSGL_con_lsi_042.txt.gz
Lid_Strength_Index
7 7 7 6 6 6 6 6 6 7 7 7 7 8 8 9 8 9 10 9 10 11 11 10 10 10 11 11 11 11 12 12 13 12 10 9 9 9 8 7 7 7 6
7 7 7 6 6 6 6 7 7 7 6 7 8 8 8 8 9 10 10 10 10 11 10 10 10 9 11 11 12 12 12 12 11 12 11 10 10 9 9 9 7 6 7
7 7 7 7 7 7 7 6 7 7 8 8 8 8 8 9 9 9 9 10 10 10 10 11 10 11 12 11 11 11 11 9 10 11 11 10 10 10 10 9 9 8 6
7 7 7 7 7 7 7 7 8 8 9 9 9 9 8 9 9 9 9 9 10 10 10 10 10 11 11 11 11 11 10 11 10 10 10 10 10 9 10 10 9 8 8
7 7 6 6 7 7 7 7 8 8 8 9 9 8 8 8 8 8 9 9 10 10 10 10 10 9 7 8 10 11 10 10 10 10 11 10 10 11 11 9 9 10 9
7 8 7 6 7 7 7 8 8 8 8 9 8 8 8 8 8 8 8 9 9 10 11 11 10 7 7 6 6 6 8 10 11 12 11 12 12 11 10 11 11 11 11
7 7 7 7 8 8 8 8 9 9 9 9 8 8 8 8 8 7 8 10 10 10 10 9 8 7 7 8 7 7 8 7 8 11 12 12 12 11 11 10 10 10 10
8 8 8 9 9 9 8 9 9 9 9 9 8 8 8 7 7 7 8 10 10 9 8 8 9 9 9 9 9 9 9 9 9 9 10 11 11 9 8 8 8 7 8
10 9 9 9 9 8 8 8 8 9 9 9 8 7 8 8 7 6 7 9 9 8 7 7 8 8 7 6 8 9 9 9 7 7 7 7 7 7 6 7 9 10 11
9 9 8 8 8 8 8 8 8 8 8 8 7 7 7 7 5 5 6 8 8 8 8 7 6 8 7 7 9 10 11 10 9 9 9 9 8 8 7 8 9 10 10
9 8 8 8 9 8 8 9 9 9 8 9 8 8 7 7 7 4 5 8 8 8 8 8 8 6 6 6 6 9 10 9 8 9 9 9 9 9 8 8 8 9 10
8 9 9 8 8 8 9 10 9 9 9 9 10 8 8 7 6 5 4 5 6 8 8 7 7 6 5 5 6 6 6 7 11 12 12 11 11 10 9 9 8 8 8
10 10 9 9 9 9 10 10 10 9 10 9 9 9 9 7 7 5 4 4 4 7 7 7 6 6 5 6 5 5 8 10 12 15 12 12 11 10 8 9 8 8 8
10 10 10 10 10 9 9 9 9 10 10 8 9 9 9 9 8 8 6 6 4 5 7 6 7 8 10 9 9 8 9 10 10 11 13 13 11 11 11 10 11 10 10
10 10 10 10 10 10 9 8 8 8 8 8 9 9 10 9 8 5 5 6 7 6 7 8 9 10 10 9 10 9 9 10 11 12 14 14 12 11 11 10 10 10 12
10 10 11 11 11 10 9 8 6 6 6 6 6 8 8 6 4 4 3 3 4 5 8 9 9 10 10 10 11 11 10 11 10 11 14 13 13 13 12 10 10 12 12
11 10 10 10 9 9 8 8 8 6 5 5 5 5 4 4 4 3 3 3 4 4 7 11 9 11 11 11 10 10 10 10 11 11 12 13 14 13 13 12 12 12 12
10 10 10 10 10 9 7 7 7 7 7 6 5 5 4 4 4 3 3 3 5 5 7 9 9 11 11 10 10 10 9 12 12 12 13 16 19 16 15 14 12 16 13
10 10 10 10 9 9 8 8 7 6 6 6 6 7 7 5 4 4 3 4 5 7 7 8 8 9 9 9 10 11 12 12 13 16 14 16 20 16 17 15 15 15 15
11 11 11 10 10 10 10 9 9 8 7 6 6 8 9 12 12 8 7 5 5 6 7 7 7 8 8 9 9 10 12 12 12 14 16 18 20 18 18 18 18 17 14
14 13 13 11 10 10 10 10 9 9 8 7 6 7 10 9 7 6 6 5 5 5 6 7 7 7 7 8 8 8 9 10 10 11 13 14 18 18 16 17 18 16 14
14 13 12 11 11 11 11 9 9 8 7 7 7 10 11 10 6 6 5 5 6 5 5 5 6 6 6 6 7 7 8 9 10 11 12 14 15 16 18 17 18 19 17
14 14 14 14 14 14 12 11 11 11 9 8 7 8 8 8 8 6 5 6 5 4 4 4 5 5 5 5 5 6 8 8 8 9 11 14 14 15 18 18 18 19 18
16 15 16 17 16 16 15 14 13 13 12 11 11 11 11 10 10 8 8 8 8 7 4 3 4 4 4 5 5 5 5 6 6 8 8 11 12 14 17 18 18 20 19
18 18 19 19 18 17 17 16 15 15 14 14 13 13 12 11 12 12 11 11 10 10 9 8 3 3 3 4 5 5 5 5 5 6 7 9 10 12 14 15 19 18 20
18 18 19 19 19 18 18 17 17 17 17 16 15 14 14 13 13 14 12 13 12 11 10 9 7 3 3 3 3 4 4 5 6 6 7 8 10 12 14 14 15 18 17

GFSGL_con_lsi_048.txt.gz
Lid_Strength_Index
6 6 7 7 7 5 6 6 7 8 7 8 8 8 8 9 9 9 10 10 10 10 10 10 10 10 10 9 9 9 8 9 11 10 10 10 10 9 9 9 8 8 7
7 8 7 7 6 6 6 8 7 8 8 8 7 8 8 9 9 10 9 10 10 10 10 10 10 9 10 10 10 9 9 9 10 12 10 10 9 9 9 9 8 7 6
8 8 7 7 7 8 8 8 8 8 8 8 8 9 9 9 9 9 9 10 10 10 9 9 9 9 9 10 9 9 9 9 10 11 11 9 9 9 9 8 8 7 7
7 7 8 7 7 8 8 8 8 8 9 8 8 8 8 8 8 9 9 10 10 10 9 9 9 9 9 8 8 9 9 10 10 10 10 10 10 9 9 9 9 8 8
8 9 8 8 8 9 9 9 8 8 9 8 8 8 8 8 8 9 10 10 10 9 9 9 9 8 6 6 8 9 10 10 10 10 11 11 10 11 11 9 10 9 9
9 9 9 9 9 9 9 9 9 9 8 7 8 8 8 8 9 8 9 11 9 9 9 9 8 5 5 4 4 5 7 9 10 11 11 11 11 11 9 10 10 11 11
9 10 10 9 10 9 8 8 8 8 8 8 8 8 9 9 8 7 7 8 9 9 9 8 8 7 6 7 6 4 5 6 8 9 11 11 11 9 9 10 9 9 10
11 10 9 9 9 9 8 8 8 8 8 9 10 10 9 9 7 7 7 8 9 9 8 8 8 8 8 8 8 8 8 8 8 8 9 9 9 8 8 8 8 9 8
10 9 8 8 8 8 8 8 8 9 10 11 10 9 10 9 7 7 7 9 9 9 8 8 7 8 7 5 8 9 8 8 7 6 6 6 6 6 6 8 10 10 11
9 9 8 8 8 8 9 9 10 11 11 10 10 10 9 10 8 7 7 9 9 8 8 8 6 7 6 5 7 8 10 9 8 9 9 8 7 7 6 7 9 11 11
8 8 8 9 10 11 11 12 12 12 11 11 11 11 10 9 9 7 6 8 8 8 8 8 7 6 5 5 5 8 9 8 9 9 9 8 8 8 8 7 8 9 10
10 10 11 12 12 12 13 13 12 12 12 11 12 11 10 9 8 7 6 5 6 8 8 7 7 6 5 4 5 6 6 7 9 10 10 10 10 9 8 8 7 7 7
12 13 13 13 13 13 13 13 12 12 12 12 11 11 10 9 10 7 6 5 5 6 7 7 6 5 4 4 4 5 6 7 9 10 10 10 9 9 8 8 7 7 7
13 14 14 14 14 13 13 12 12 13 12 11 10 10 10 9 9 9 8 7 6 6 7 6 7 6 6 5 5 5 6 7 8 9 9 9 10 10 10 9 10 9 9
14 14 14 14 14 14 13 12 11 11 11 11 10 10 10 10 8 6 6 6 7 7 6 6 6 7 7 6 7 6 7 8 9 9 11 11 11 11 10 10 10 10 11
14 15 15 16 16 14 13 13 11 11 10 9 9 10 9 7 6 5 4 4 4 4 7 7 8 7 7 7 7 7 7 8 8 9 10 10 11 11 11 11 10 11 11
16 16 16 16 15 14 14 14 15 13 11 11 10 9 8 7 7 6 5 4 4 4 6 6 7 7 7 7 7 7 8 8 8 9 9 11 11 11 12 11 11 12 12
17 17 17 16 16 15 16 14 15 15 15 15 12 10 9 9 7 6 5 5 6 5 5 6 6 6 6 7 7 7 7 8 9 9 11 11 12 12 12 12 12 13 12
17 17 16 16 16 15 15 16 16 15 14 14 14 13 12 11 9 6 5 6 6 6 6 6 5 5 5 5 6 7 7 8 9 11 10 12 14 12 13 12 12 15 14
17 16 17 16 17 17 17 17 16 16 15 15 15 15 14 14 13 13 10 10 8 7 6 6 5 5 4 6 6 7 8 9 10 11 12 12 13 13 13 13 15 14 12
17 17 18 18 18 18 18 18 17 16 18 17 17 16 16 15 14 15 14 13 13 12 11 10 6 4 5 6 6 7 8 9 8 10 10 11 13 13 13 13 14 14 12
19 19 19 19 19 20 20 18 18 19 19 19 19 17 17 16 16 16 15 14 14 13 12 11 10 9 6 5 5 7 8 8 8 9 10 10 11 11 12 13 14 14 13
20 22 22 21 21 22 22 21 20 21 20 21 20 19 18 18 17 17 16 15 15 14 13 13 12 11 9 9 6 5 6 7 7 8 9 10 11 11 12 13 14 15 14
22 26 22 24 25 23 27 27 25 24 22 22 22 20 20 20 18 18 17 16 15 14 13 13 13 12 12 10 9 6 4 4 5 7 7 9 10 10 11 12 13 13 14
28 29 28 26 27 30 31 28 29 29 25 23 22 21 20 21 19 19 19 18 16 15 14 14 13 13 12 12 10 9 6 4 4 5 6 8 9 10 10 11 12 13 14
23 25 27 28 30 31 32 31 30 30 27 24 23 23 22 22 20 20 19 19 18 17 15 14 14 14 13 12 10 10 9 4 4 5 5 6 8 9 10 10 12 12 13

GFSGL_con_lsi_051.txt.gz
Lid_Strength_Index
1 1 1 2 2 3 4 5 6 7 7 7 6 8 8 8 8 8 8 7 7 6 7 7 6 6 6 6 5 4 5 5 6 5 4 3 4 4 4 4 4 5 4
1 2 2 3 4 4 5 5 6 7 6 7 8 8 7 8 8 8 7 6 7 7 6 7 7 6 6 5 5 5 5 4 5 6 4 5 5 4 4 5 5 5 4
3 4 4 5 4 5 6 6 6 6 7 7 7 7 7 7 7 6 6 6 6 6 6 6 5 5 5 5 5 5 5 5 4 6 6 5 5 4 5 5 5 4 4
6 5 6 6 5 6 7 7 7 6 6 5 6 7 6 7 6 6 6 6 6 6 5 4 4 4 4 4 5 5 5 5 5 6 6 5 5 5 5 7 6 5 5
7 7 7 6 7 7 7 8 7 7 6 7 6 7 7 7 7 7 6 6 6 6 4 5 4 4 5 4 5 4 4 5 5 6 6 5 6 6 7 6 7 6 5
6 8 8 8 8 9 9 8 7 7 6 6 7 7 7 7 8 8 8 7 6 5 5 4 4 5 5 5 5 5 5 5 6 6 6 6 6 6 6 7 7 7 8
7 8 9 9 9 8 7 7 6 7 6 7 7 7 7 6 9 9 9 6 5 4 4 4 4 5 5 4 5 5 4 5 6 4 5 5 6 5 6 7 6 6 7
9 9 8 8 8 7 7 7 7 7 7 7 7 6 7 7 9 8 8 5 5 5 4 4 4 3 3 4 4 4 4 3 4 5 4 4 4 5 6 5 6 6 5
8 8 8 7 7 7 8 8 7 7 7 7 8 8 8 7 8 8 7 5 5 5 5 4 4 3 4 5 4 5 5 4 5 5 5 5 6 6 5 5 6 7 7
8 7 7 7 8 8 8 8 8 8 9 9 9 8 9 7 7 7 7 5 6 6 5 4 5 4 5 5 4 5 5 4 5 5 5 5 5 5 6 5 5 7 7
8 9 9 10 10 9 9 9 9 9 9 10 10 9 8 7 6 7 7 6 6 6 5 5 3 5 5 5 5 4 4 3 5 5 5 5 6 5 5 5 5 6 7
10 10 10 10 10 10 10 10 10 10 10 10 10 9 8 7 7 7 7 7 6 6 5 3 2 4 5 4 4 4 4 5 4 5 5 6 6 6 5 4 4 5 5
11 11 11 11 12 12 12 12 12 12 12 12 12 11 10 9 8 8 8 8 7 6 4 4 4 5 4 5 4 4 4 5 5 5 5 6 5 4 4 5 5 5 5
12 13 13 13 13 13 13 13 13 13 13 13 12 12 11 10 9 8 8 8 7 5 5 4 5 5 4 3 4 4 3 3 4 5 5 5 4 5 5 5 6 6 6
13 14 14 14 14 14 14 14 14 13 13 13 12 12 11 11 10 10 9 8 6 6 6 5 5 5 5 4 4 4 3 3 5 5 5 5 6 6 6 5 6 6 7
15 15 16 15 15 15 15 15 14 13 13 12 12 12 11 12 11 10 9 7 6 6 6 6 5 4 5 4 5 5 4 4 4 4 5 5 6 6 6 6 6 7 7
16 16 16 16 15 16 16 16 16 13 13 12 12 13 13 12 11 10 9 8 6 6 6 6 5 4 4 4 4 5 5 4 4 5 5 5 5 6 6 6 6 7 7
16 17 16 16 16 16 16 16 16 15 15 14 13 14 14 13 12 11 10 10 10 10 7 6 4 4 3 3 4 4 4 4 4 5 5 5 5 5 6 7 7 7 7
17 17 17 17 17 18 17 17 16 15 16 16 15 14 14 14 12 12 12 12 13 12 12 11 9 6 5 4 3 3 3 4 4 5 5 5 5 6 6 6 6 8 9
17 18 18 18 18 18 17 17 17 16 17 17 16 16 15 15 15 14 13 13 13 13 13 12 11 9 8 4 3 3 3 4 4 5 5 5 5 6 6 7 7 7 8
18 18 20 19 19 18 18 18 18 17 17 17 16 16 18 17 16 15 14 14 14 14 14 13 12 10 9 8 7 3 3 4 4 5 5 5 6 6 6 6 6 7 7
19 20 20 20 19 19 20 19 18 18 18 17 17 16 18 16 16 15 15 15 15 14 13 13 13 11 11 10 9 8 5 4 4 5 5 5 6 6 6 6 7 7 7
20 21 21 20 20 21 20 20 19 18 19 18 18 18 18 17 17 17 16 16 15 15 14 14 13 12 11 11 10 9 8 7 4 4 5 5 6 6 6 7 7 8 8
21 21 21 21 21 21 21 20 20 20 20 19 19 19 19 18 18 17 17 16 16 16 15 15 14 13 11 11 11 10 8 8 8 3 4 5 5 6 6 6 7 7 8
21 21 21 21 21 21 21 21 21 21 21 21 20 20 19 19 18 18 17 17 17 17 17 16 14 13 12 12 12 11 10 10 9 6 3 4 5 6 6 6 7 7 8
20 21 20 20 20 21 21 22 22 22 22 22 21 20 20 20 19 18 18 18 18 18 18 16 15 14 13 12 11 11 12 11 9 9 3 4 5 5 6 6 7 7 9

GFSGL_con_lsi_054.txt.gz
Lid_Strength_Index
1 0 0 0 0 0 1 1 3 5 6 6 6 6 8 7 7 7 8 7 7 5 4 5 5 5 5 5 5 4 4 4 6 5 3 3 3 3 2 2 2 2 2
1 1 1 1 1 2 3 3 5 6 6 5 6 7 7 6 7 7 7 7 5 5 5 5 5 6 5 5 5 4 4 3 5 6 4 3 2 2 2 2 3 3 3
1 1 2 3 4 4 5 6 6 6 6 6 7 7 6 7 7 7 6 5 5 5 5 5 5 5 5 5 4 4 3 4 4 4 4 2 2 2 3 2 3 3 3
3 4 5 5 5 5 6 6 6 6 6 6 6 6 6 6 6 6 5 5 5 5 5 5 5 5 4 3 3 3 4 4 3 4 4 3 3 3 3 4 4 3 4
5 6 6 6 6 6 5 5 5 6 6 4 6 6 6 6 6 6 6 6 5 5 5 4 4 3 4 4 3 3 3 4 3 4 4 4 4 4 4 3 4 4 3
6 7 7 7 7 7 6 5 6 6 6 6 7 7 6 6 8 8 7 5 6 5 5 4 3 4 4 5 5 5 4 2 3 3 4 5 4 4 3 4 4 5 6
5 7 6 6 6 5 6 6 6 6 6 6 6 6 6 6 8 8 9 7 6 6 5 4 4 3 4 3 5 6 5 5 5 2 3 4 4 3 3 4 5 5 5
6 6 6 6 5 5 5 6 6 7 6 6 6 5 5 5 9 9 10 7 6 6 4 4 4 3 3 3 3 3 2 2 2 3 3 2 2 2 2 3 4 4 4
5 5 5 5 6 6 6 6 6 5 5 5 6 7 6 6 9 9 9 7 7 6 5 4 4 4 4 4 3 3 2 1 2 3 3 3 5 5 5 4 5 5 5
6 6 5 5 7 7 7 7 7 6 7 7 8 7 8 7 8 9 8 7 7 6 5 5 6 5 5 5 3 2 3 2 2 2 3 3 4 3 5 4 4 6 5
6 7 8 8 8 8 8 8 8 8 8 8 8 7 7 8 8 9 9 8 8 8 7 6 4 5 6 5 5 3 3 1 2 2 3 3 2 2 3 3 3 4 5
7 8 8 9 9 9 9 8 9 9 10 10 9 10 9 9 10 10 9 8 8 8 8 6 5 5 4 4 4 4 4 3 2 2 3 3 3 3 3 3 3 3 3
9 9 10 10 11 11 11 11 11 11 11 11 12 11 11 10 10 10 10 10 10 8 7 7 7 6 5 5 5 5 4 2 3 3 3 3 2 2 2 3 3 3 3
10 11 11 12 12 12 11 12 12 12 12 13 12 13 12 12 11 11 11 10 10 8 8 5 6 6 6 5 5 4 3 2 2 3 3 2 2 3 3 3 4 4 4
12 13 13 13 13 12 13 13 13 12 13 13 13 13 14 13 13 13 12 11 10 10 8 6 6 5 4 4 4 3 3 2 3 2 2 2 3 3 4 4 4 4 5
13 14 14 13 13 13 13 12 15 15 15 15 15 15 14 14 14 13 12 12 11 10 8 7 6 5 4 4 3 3 3 4 3 3 2 3 3 4 4 4 4 5 5
14 15 14 14 13 14 13 13 14 13 15 15 15 16 15 15 14 13 12 12 10 10 10 9 8 7 6 3 4 3 3 3 3 3 2 3 3 3 4 4 5 5 6
16 17 14 14 14 13 14 14 14 15 15 14 14 15 15 15 14 13 12 11 10 10 10 10 10 8 8 7 5 3 3 2 3 3 2 3 3 4 4 5 5 5 5
15 15 15 14 15 15 15 15 15 15 15 15 14 14 14 15 13 12 12 11 12 12 11 11 10 10 9 9 7 5 3 2 2 2 3 3 3 3 4 4 5 5 6
16 18 17 15 15 15 15 15 16 16 16 15 15 14 14 15 13 12 11 11 12 12 12 11 11 10 10 10 8 7 5 3 2 2 3 3 3 3 4 4 5 5 6
15 16 19 16 16 16 16 16 16 16 16 15 15 14 17 16 13 12 13 12 13 13 12 12 11 11 10 10 9 8 8 6 3 2 2 3 3 4 4 4 5 5 5
17 17 17 17 16 16 18 17 16 16 16 16 15 14 16 14 13 13 13 13 13 12 12 12 12 12 11 10 10 10 8 8 5 5 3 3 3 3 4 4 5 5 5
18 17 17 17 17 19 17 17 17 16 16 16 15 15 14 14 14 14 14 14 13 13 12 12 12 13 11 10 10 9 9 8 7 7 7 4 3 3 4 5 5 6 6
18 18 18 18 18 18 17 18 17 17 17 16 15 15 15 15 15 15 15 14 14 13 13 13 13 13 12 12 10 9 8 8 8 9 7 7 3 3 4 4 5 5 6
17 18 18 17 18 18 18 17 17 16 16 16 16 15 15 15 15 15 15 14 15 14 14 14 13 13 13 13 12 10 8 9 10 10 8 7 3 3 4 4 4 5 5
17 18 18 18 17 17 17 17 17 17 17 17 16 16 16 16 16 16 15 15 15 15 15 14 14 14 13 12 11 10 10 10 10 10 9 8 3 3 3 4 4 5 5

GFSGL_con_lsi_057.txt.gz
Lid_Strength_Index
1 1 1 1 1 0 1 1 1 1 3 4 6 6 6 6 7 7 8 8 9 7 7 6 4 4 5 5 5 5 6 6 8 6 4 3 2 2 3 3 2 2 1
1 1 1 1 1 1 2 3 4 4 5 6 6 6 6 7 7 7 8 8 8 7 6 4 5 5 5 4 5 5 5 4 5 6 4 3 3 2 2 2 2 2 2
1 2 2 3 4 5 6 6 6 6 6 6 7 7 7 6 6 6 7 7 6 5 4 5 5 5 5 5 5 4 4 4 3 4 4 3 3 2 2 1 2 1 2
2 3 5 5 5 5 6 6 6 6 6 7 7 7 7 7 7 7 7 6 5 5 5 5 4 5 5 4 4 3 3 3 3 4 4 4 3 2 1 2 3 2 2
4 5 5 5 5 5 5 6 6 6 7 6 6 6 6 6 6 6 6 6 6 5 5 4 4 4 6 5 4 3 3 3 3 3 3 3 3 3 3 2 3 2 2
5 6 6 6 5 4 5 5 5 6 5 5 6 7 7 7 8 8 8 6 5 5 5 5 4 5 4 6 6 6 4 3 4 3 3 3 2 2 2 2 3 4 5
4 4 4 4 4 4 4 4 4 5 5 5 7 6 6 6 8 8 9 6 6 6 6 5 5 5 5 3 4 6 6 6 6 3 3 2 3 1 1 3 3 4 4
4 4 4 4 4 4 4 4 5 5 5 5 5 5 5 5 8 9 10 7 7 6 6 6 5 5 4 4 4 4 3 2 2 2 2 2 1 0 1 2 3 3 3
4 4 3 4 5 4 5 5 5 6 5 6 6 6 7 6 9 10 9 7 7 7 6 6 6 5 6 6 5 4 4 3 2 2 2 2 4 4 4 2 3 4 4
4 4 4 4 4 5 5 6 6 6 7 7 8 7 9 7 11 10 10 9 10 9 9 8 9 8 8 7 5 5 5 3 2 2 2 2 3 3 4 3 3 4 5
4 4 5 5 6 6 6 7 7 7 8 8 9 8 9 9 9 10 11 11 11 11 11 10 9 9 8 7 7 6 5 3 3 2 2 1 1 2 1 2 2 3 4
6 6 6 7 8 8 8 8 9 9 10 10 10 10 9 9 11 12 12 12 12 12 12 10 9 9 8 8 7 6 6 6 4 3 3 3 2 2 1 1 1 2 2
7 7 8 9 9 9 10 10 10 10 11 11 12 11 11 11 10 12 12 13 12 12 11 10 10 9 8 7 6 6 6 5 5 5 4 3 1 1 1 1 1 1 2
8 9 10 10 11 11 11 11 12 12 12 12 12 12 12 12 12 12 13 13 13 12 12 10 10 9 8 7 6 5 4 4 4 4 3 2 1 1 1 1 2 2 3
10 11 11 12 12 12 12 12 12 13 14 13 13 13 14 14 14 15 15 14 13 13 12 10 8 8 7 6 5 4 3 3 4 3 2 2 2 2 2 2 2 3 5
12 12 12 12 12 12 12 13 15 15 16 15 16 16 15 15 16 15 15 14 13 12 11 10 10 9 9 8 7 6 3 3 3 3 2 2 2 2 2 2 3 4 5
13 13 14 13 13 13 13 13 13 15 15 15 16 16 16 16 16 15 14 14 12 11 11 10 9 9 9 9 8 7 6 4 3 3 2 2 2 2 2 3 3 4 4
14 15 13 13 13 13 13 14 13 14 15 14 15 15 16 16 16 15 14 12 11 10 10 10 10 10 10 10 9 8 7 5 5 2 2 2 2 2 3 3 3 4 5
14 14 14 14 14 15 14 14 14 15 15 15 14 14 14 15 15 13 12 12 12 12 11 11 10 11 11 10 9 8 8 7 6 5 1 2 2 2 2 3 3 4 4
16 17 16 15 15 15 15 15 15 15 15 15 14 14 14 16 15 13 12 11 12 11 11 12 12 11 11 10 9 9 9 8 7 5 4 2 2 2 2 3 3 4 5
15 16 18 15 15 16 16 16 16 15 15 15 15 14 18 17 15 13 12 12 12 12 12 12 12 12 10 10 10 9 10 10 8 6 5 5 2 2 2 2 3 4 4
16 17 16 16 16 16 17 16 16 16 16 16 15 15 15 14 13 13 12 12 12 12 11 12 12 12 11 11 11 10 11 10 9 7 7 7 6 3 2 3 3 4 4
17 17 17 17 17 18 17 16 16 16 16 16 15 14 13 13 13 13 13 13 13 13 13 13 13 12 11 11 10 11 11 10 9 7 8 8 8 6 3 3 4 4 5
18 17 18 17 17 18 17 17 16 17 17 16 15 14 13 13 13 13 13 13 13 13 13 13 13 13 12 11 11 11 10 10 8 8 9 9 9 7 6 3 3 4 5
18 18 18 18 17 17 17 17 17 16 15 15 14 14 14 13 14 13 14 14 14 14 14 14 13 12 12 13 12 12 11 10 9 9 9 9 9 8 8 4 3 4 5
18 18 18 18 17 17 17 17 16 15 15 15 15 14 14 14 14 14 14 15 14 15 15 13 13 13 13 12 11 11 11 11 10 9 9 9 9 8 7 3 3 4 5